Location: ??????
(42.0089°N, 44.3281°E)
Time: 18:02:55
(UTC+00:00)

USA 267 - Pass Details

Date: 24 October 2021
Orbit: 1101 x 1107 km, 123.0° (Epoch: 27 November)

Event Time Altitude Azimuth Distance (km) Brightness Sun altitude
Exits shadow 16:06:27 - 158° (SSE) 3,177 5.4 -22.7°
Reaches altitude 10° 16:07:05 10° 160° (SSE) 2,949 5.3 -22.8°
Maximum altitude 16:13:13 43° 230° (SW) 1,501 4.2 -24.0°
Drops below altitude 10° 16:19:23 10° 301° (WNW) 2,961 6.4 -25.1°
Sets 16:22:01 0° 308° (NW) 3,922 7.1 -25.6°
